Regional Weather Roundup
Issued by NWS

Home | Current Version | Previous Version | Graphics & Text | Print | Product List | Glossary On
Versions: 1 2 3 4 5 6 7 8 9 10 11 12 13 14 15 16 17 18 19 20 21 22 23 24 25 26 27 28 29 30 31 32 33 34 35 36 37 38 39 40 41 42 43 44 45 46 47 48 49 50
000
ASUS43 KMKX 241621
RWRWI

WISCONSIN REGIONAL WEATHER ROUNDUP
NATIONAL WEATHER SERVICE MILWAUKEE/SULLIVAN WI
1100 AM CDT FRI MAR 24 2017

NOTE: "FAIR" INDICATES FEW OR NO CLOUDS BELOW 12,000 FEET WITH NO
SIGNIFICANT WEATHER AND/OR OBSTRUCTIONS TO VISIBILITY.

WIZ001-002-006>008-014>016-023>028-241700-
NORTHWEST WISCONSIN

CITY           SKY/WX    TMP DP  RH WIND       PRES   REMARKS
SUPERIOR ARPT  CLOUDY    38  34  85 NE9       30.05R WCI  31
ASHLAND        CLOUDY    39  35  86 N8        30.03R WCI  33
HAYWARD        CLOUDY    39  33  79 N10       30.00R WCI  32
SIREN          CLOUDY    38  34  82 N12G17    30.01R WCI  31
CUMBERLAND     CLOUDY    36  32  87 N10       29.99R WCI  28
RICE LAKE      CLOUDY    37  35  95 CALM      30.01R FOG
CHETEK         DRIZZLE   36  36 100 CALM      29.99R
LADYSMITH      CLOUDY    37  36  96 N6        29.99R WCI  32
EAU CLAIRE     CLOUDY    39  38  96 NE7       29.95R FOG     WCI  34
MENOMONIE      DRIZZLE   39  37  91 N5        29.97R
NEW RICHMOND   CLOUDY    37  37 100 N12       30.00R FOG     WCI  29
OSCEOLA        CLOUDY    39  39 100 N8        30.04R WCI  33
$$

WIZ003>005-009-010-017-018-241700-
NORTH CENTRAL WISCONSIN

CITY           SKY/WX    TMP DP  RH WIND       PRES   REMARKS
MANITOWISH WTR CLOUDY    33  33 100 N7        29.97R FOG     WCI  26
ARBOR VITAE    MIX PCPN  37  36  96 N3        29.96R
WOODRUFF       MIX PCPN  37  36  96 N3        29.96R
RHINELANDER    LGT RAIN  36  35  96 N3        29.96R FOG
EAGLE RIVER    LGT RAIN  33  33 100 N3        29.96R
LAND O LAKES   CLOUDY    33  33 100 N7        29.97R FOG     WCI  27
PHILLIPS       DRIZZLE   34  34 100 N6        29.96R WCI  29
TOMAHAWK       RAIN      34  33  96 N3        29.96R
MEDFORD        LGT RAIN  35  34  94 E5        29.94R WCI  31
MERRILL        RAIN      36  36 100 CALM      29.97R
$$

WIZ029-030-035-036-043>047-241700-
CENTRAL WISCONSIN

CITY           SKY/WX    TMP DP  RH WIND       PRES   REMARKS
WAUSAU         LGT RAIN  37  35  92 VRB3      29.95R FOG
MOSINEE        LGT RAIN  36  36 100 NE6       29.95R FOG     WCI  31
MARSHFIELD     CLOUDY    37  37 100 NE7       29.94R FOG     WCI  32
STEVENS POINT  LGT RAIN  35  35 100 NE5       29.96R WCI  31
WAUPACA        CLOUDY    39  36  87 N6        29.96R FOG
WAUTOMA        CLOUDY    41  37  86 NE10      29.95R
WISC RAPIDS    CLOUDY    38  38 100 E7        29.96S FOG     WCI  33
CAMP DOUGLAS   CLOUDY    45  39  81 N3        29.93R
$$

WIZ011>013-019>022-031-037>040-048>050-241700-
NORTHEAST WISCONSIN

CITY           SKY/WX    TMP DP  RH WIND       PRES   REMARKS
ANTIGO         LGT RAIN  35  35 100 E3        29.93R
SHAWANO        LGT RAIN  37  35  91 CALM      29.97R
OCONTO         CLOUDY    37  34  90 N3        29.97R
STURGEON BAY   CLOUDY    36  34  93 N10       29.97R FOG     WCI  28
GREEN BAY      CLOUDY    41  37  86 N10       29.95R
MANITOWOC      CLOUDY    45  37  73 NE8       29.95R
APPLETON       CLOUDY    39  37  93 NE8       29.92R WCI  34
CLINTONVILLE   LGT RAIN  36  34  93 N6        29.97R WCI  31
OSHKOSH        CLOUDY    44  38  79 N12       29.93R
$$

WIZ032>034-041-042-053>061-241700-
SOUTHWEST WISCONSIN

CITY           SKY/WX    TMP DP  RH WIND       PRES   REMARKS
LA CROSSE      LGT RAIN  42  40  92 N8        29.92R FOG
SPARTA         CLOUDY    42  39  92 N6        29.94R
VIROQUA        CLOUDY    44  41  90 NE8       29.90R
BOSCOBEL       CLOUDY    54  43  66 VRB3      29.90R
PRAIRIE DU CHI PTSUNNY   51  41  69 CALM      29.88S
PLATTEVILLE    CLOUDY    63  52  67 SW12      29.87R
$$

WIZ056-057-062-063-064-067-068-241700-
SOUTH CENTRAL WISCONSIN

CITY           SKY/WX    TMP DP  RH WIND       PRES   REMARKS
REEDSBURG      CLOUDY    48  42  81 N7        29.90R
BARABOO/DELLS  CLOUDY    47  39  75 N7        29.91R
LONE ROCK      CLOUDY    55  44  66 NW5       29.90R HAZE
MINERAL POINT  CLOUDY    61  52  72 SW13      29.86S
MADISON        CLOUDY    54  45  71 VRB3      29.88R
MIDDLETON      CLOUDY    55  46  73 NE3       29.88S
WATERTOWN      CLOUDY    55  47  75 CALM      29.89S
MONROE         CLOUDY    59  48  67 SW16      29.87R
JANESVILLE     CLOUDY    63  34  34 SW6       29.88S
$$

WIZ051-052-058>065-066-070>072-241700-
SOUTHEAST WISCONSIN

CITY           SKY/WX    TMP DP  RH WIND       PRES   REMARKS
MILWAUKEE      PTSUNNY   60  46  59 SW12      29.90R
WAUKESHA       PTSUNNY   55  46  71 SW8       29.90S
MILWAUKEE/TIMM MOSUNNY   55  41  58 N5        29.90S
RACINE         MOSUNNY   62  48  60 SW10      29.90F
KENOSHA        MOSUNNY   65  49  56 SW13G20   29.89S
FOND DU LAC    PTSUNNY   50  41  71 CALM      29.92R
SHEBOYGAN      MOSUNNY   48  40  73 CALM      29.91R
WEST BEND      CLOUDY    50  43  76 S3        29.90S
JUNEAU         CLOUDY    50  43  77 CALM      29.91R
$$

LSZ147-162-241700-
LAKE SUPERIOR

STATION/POSITION TIME  TEMP    WIND        PRES    WAVE
                       AIR SEA DIR/SP/G            HT/PER
                 (UTC) (F)     (DEG/KT/KT) (MB)    (FT/S)
DEVILS ISLAND    1600   35      10/ 13/ 13 1018.2R
PORT WING        1540   35     330/  2/  5 1017.3R
SAXON HARBOR     1530   35      50/  1/  2 1016.3R
$$

LMZ867-665-643>646-241700-
LAKE MICHIGAN

STATION/POSITION TIME  TEMP    WIND        PRES    WAVE
                       AIR SEA DIR/SP/G            HT/PER
                 (UTC) (F)     (DEG/KT/KT) (MB)    (FT/S)
CHAMBERS ISLAND  1540   34     320/  5/  6 1014.2R
NORTHPORT PIER   1540   33     310/  4/  6 1014.6R
SISTER BAY       1505   33     360/  7/  7   N/A
KEWAUNEE LAKESHO 1554   42      20/  5/  9 1013.6R
SHEBOYGAN LAKESH 1600   41      20/  3/  4 1013.3R
PORT WASHINGTON  1540   44      CALM  /  1 1013.9R
MILWAUKEE LAKESH 1600   39      40/ 11/ 12   N/A
KENOSHA   LAKESH 1600   46     100/  4/  6 1012.5
$$

TC  - TEMPERATURE IN CELSIUS
VSB - VISIBILITY IN STATUTE MILES
WCI - WIND CHILL INDEX
HX  - HEAT INDEX




USA.gov is the U.S. government's official web portal to all federal, state and local government web resources and services.